Change the Weather History Date:

Thursday, October 24, 2013

  Actual Average Record
Temperature  
Mean Temperature 59 °F 61 °F  
Max Temperature 74 °F 74 °F 90 °F (2003)
Min Temperature 44 °F 49 °F 26 °F (1917)
Degree Days  
Heating Degree Days 6 6  
Month to date heating degree days 76 76  
Since 1 July heating degree days 76 88  
Cooling Degree Days 0 2  
Month to date cooling degree days 72 73  
Year to date cooling degree days 2140 2100  
Growing Degree Days 9 (Base 50)    
Moisture  
Dew Point 49 °F    
Average Humidity 72    
Maximum Humidity 100    
Minimum Humidity 44    
Precipitation  
Precipitation 0.00 in 0.17 in 2.03 in (1975)
Month to date precipitation 2.81 4.01  
Year to date precipitation 32.75 41.67  
Snow  
Snow 0.00 in - - ()
Month to date snowfall 0.0  
Since 1 July snowfall 0.0  
Since 1 September snowfall 0.0  
Snow Depth 0.00 in    
Sea Level Pressure  
Sea Level Pressure 30.19 in    
Wind  
Wind Speed 5 mph (NNE)    
Max Wind Speed 13 mph    
Max Gust Speed 16 mph    
Visibility 10 miles    
Events      
T = Trace of Precipitation, MM = Missing Value Source: NWS Daily Summary

Daily Weather History Graph

Daily Weather History Graph

Search for Another Location

Airport or City:

Trip Planner

Search our weather history database for the weather conditions in past years. The results will help you decide how hot, cold, wet, or windy it might be!

Date:

Astronomy

Oct. 24, 2013 Rise Set
Actual Time 7:23 AM CDT 6:27 PM CDT
Civil Twilight 6:57 AM CDT 6:52 PM CDT
Nautical Twilight 6:28 AM CDT 7:21 PM CDT
Astronomical Twilight 5:59 AM CDT 7:50 PM CDT
Moon 10:58 PM CDT (10/24) 12:17 PM CDT (10/24)
Length of Visible Light 11h 54m
Length of Day
11h 04m
Waning Gibbous, 71% of the Moon is Illuminated
Oct 24
Waning Gibbous
Oct 26
Last Quarter
Nov 3
New
Nov 9
First Quarter
Nov 17
Full

Hourly Weather History & Observations

Time (CDT) Temp. Dew Point Humidity Pressure Visibility Wind Dir Wind Speed Gust Speed Precip Events Conditions
12:53 AM 53.1 °F 46.9 °F 80% 30.07 in 10.0 mi South 4.6 mph - N/A   Clear
1:53 AM 50.0 °F 46.0 °F 86% 30.07 in 10.0 mi Calm Calm - N/A   Clear
2:53 AM 48.0 °F 46.9 °F 96% 30.08 in 10.0 mi Calm Calm - N/A   Clear
3:53 AM 46.9 °F 46.0 °F 97% 30.09 in 10.0 mi Calm Calm - N/A   Clear
4:53 AM 46.9 °F 46.0 °F 97% 30.10 in 10.0 mi Calm Calm - N/A   Clear
5:53 AM 46.0 °F 45.0 °F 96% 30.12 in 10.0 mi Calm Calm - N/A   Clear
6:53 AM 45.0 °F 44.1 °F 97% 30.13 in 10.0 mi Calm Calm - N/A   Clear
7:53 AM 45.0 °F 44.1 °F 97% 30.14 in 10.0 mi Calm Calm - N/A   Clear
8:53 AM 53.1 °F 48.9 °F 86% 30.17 in 10.0 mi Calm Calm - N/A   Clear
9:53 AM 60.1 °F 52.0 °F 75% 30.19 in 10.0 mi WNW 4.6 mph - N/A   Clear
10:53 AM 64.9 °F 53.1 °F 65% 30.20 in 10.0 mi Variable 3.5 mph - N/A   Clear
11:53 AM 69.1 °F 52.0 °F 54% 30.21 in 10.0 mi North 9.2 mph - N/A   Clear
12:53 PM 73.0 °F 51.1 °F 46% 30.19 in 10.0 mi NNE 9.2 mph 16.1 mph N/A   Clear
1:53 PM 73.0 °F 52.0 °F 48% 30.19 in 10.0 mi Variable 3.5 mph - N/A   Clear
2:53 PM 73.9 °F 52.0 °F 46% 30.19 in 10.0 mi North 9.2 mph - N/A   Clear
3:53 PM 73.9 °F 50.0 °F 43% 30.19 in 10.0 mi NNW 9.2 mph - N/A   Clear
4:53 PM 72.0 °F 51.1 °F 48% 30.20 in 7.0 mi Variable 6.9 mph - N/A   Clear
5:53 PM 66.9 °F 52.0 °F 59% 30.21 in 7.0 mi NNE 4.6 mph - N/A   Clear
6:53 PM 62.1 °F 52.0 °F 70% 30.24 in 10.0 mi North 5.8 mph - N/A   Clear
7:53 PM 60.1 °F 51.1 °F 72% 30.26 in 10.0 mi NNE 5.8 mph - N/A   Clear
8:53 PM 57.0 °F 48.9 °F 74% 30.28 in 10.0 mi NE 8.1 mph - N/A   Clear
9:53 PM 55.0 °F 46.0 °F 72% 30.31 in 10.0 mi NE 11.5 mph - N/A   Clear
10:53 PM 52.0 °F 44.1 °F 74% 30.33 in 10.0 mi NE 6.9 mph - N/A   Clear
11:53 PM 52.0 °F 43.0 °F 71% 30.34 in 10.0 mi NNE 9.2 mph - N/A   Clear